[[{"header":{"parameterUnit":"m.s-1","parameterCategory":1,"la1":30.2991,"la2":30.254,"lo1":-89.0895,"lo2":-89.0444,"dy":0.0017,"dx":0.0017,"nx":28,"ny":28,"refTime":"2023-07-18T09:00:00:Z","depth":0,"parameterNumber":2,"parameterNumberName":"U-component_of_WINDS"},"data":[0,0,0,0,0,0,0,0,0,0,0,0,0,0,0,0,0,0,0,0,0,0,0,0,0,0,0,0,0,0,0,0,0,0,0,0,0,0,0,0,0,0,0,0,0,0,0,0,0,0,0,0,0,0,0,0,0,0,-0.7468,-0.7467,0,-0.7456,-0.7456,-0.7455,-0.7418,-0.7417,-0.7416,-0.7415,-0.7403,-0.7404,-0.7404,0,0,0,0,0,0,0,0,0,0,0,0,0,-0.746,-0.746,-0.7468,-0.7467,-0.7467,-0.7456,-0.7456,-0.7455,-0.7418,-0.7417,-0.7416,-0.7415,-0.7403,-0.7403,-0.7404,0,0,0,0,0,0,0,0,0,0,0,0,0,-0.7457,-0.746,-0.7468,-0.7447,-0.7445,-0.7456,-0.7456,-0.7455,-0.7418,-0.7417,-0.7416,-0.7414,-0.7403,-0.7403,-0.7404,-0.7433,0,0,-0.7406,-0.7406,0,0,0,0,0,0,0,0,-0.7457,-0.7457,-0.745,-0.7449,-0.7446,-0.7437,-0.7448,-0.7448,-0.7418,-0.7428,-0.7415,-0.7414,-0.7415,-0.7415,-0.7415,-0.7433,-0.7432,-0.7406,-0.7407,-0.7407,-0.7407,0,0,0,0,0,0,0,-0.7457,-0.7458,-0.7463,-0.745,-0.7448,-0.7439,-0.7437,-0.7448,-0.7429,-0.7427,-0.7425,-0.7424,-0.7414,-0.7415,-0.7415,-0.7432,-0.7406,-0.7407,-0.7407,-0.7408,-0.7476,-0.7477,0,0,0,0,0,0,-0.746,-0.7458,-0.7463,-0.7462,-0.7449,-0.744,-0.7438,-0.7441,-0.7429,-0.7426,-0.7425,-0.7422,-0.7414,-0.7414,-0.7414,-0.745,-0.7407,-0.7408,-0.7408,-0.7474,-0.7476,-0.7477,0,0,0,0,0,0,-0.746,-0.7461,-0.7464,-0.746,-0.7459,-0.7442,-0.7445,-0.7442,-0.7442,-0.7427,-0.7423,-0.7429,-0.7413,-0.7413,-0.743,-0.7449,-0.7408,-0.7409,-0.7473,-0.7475,-0.7477,-0.7519,0,0,0,0,0,0,-0.746,-0.7461,-0.7472,-0.746,-0.746,-0.7479,-0.7446,-0.7442,-0.7444,-0.744,-0.743,-0.7427,-0.7412,-0.7429,-0.743,-0.7449,-0.7409,-0.7471,-0.7474,-0.7476,-0.7516,-0.7522,-0.7528,0,0,0,0,0,-0.746,-0.7484,-0.7472,-0.7473,-0.7472,-0.748,-0.748,-0.7462,-0.7445,-0.7456,-0.7447,-0.7427,-0.7446,-0.7431,-0.7432,-0.7451,-0.747,-0.7473,-0.7476,-0.7513,-0.7521,-0.7528,0,0,0,0,0,0,-0.7497,-0.7482,-0.7469,-0.7489,-0.7486,-0.7473,-0.7486,-0.7471,-0.7472,-0.7469,-0.7447,-0.7445,-0.7465,-0.7459,-0.7442,-0.748,-0.7455,-0.7458,-0.7483,-0.749,-0.7496,-0.7497,-0.741,0,0,0,0,0,-0.7508,-0.7515,-0.7501,-0.7521,-0.752,-0.7504,-0.7506,-0.7493,-0.7489,-0.7488,-0.7479,-0.7476,-0.7482,-0.7485,-0.7489,-0.7515,-0.7513,-0.7529,-0.7535,-0.754,-0.7544,-0.7559,-0.7566,-0.7488,-0.7488,-0.7488,0,0,-0.753,-0.7523,-0.7528,-0.7528,-0.7524,-0.7533,-0.7503,-0.7513,-0.752,-0.7489,-0.7504,-0.7498,-0.7494,-0.7515,-0.7524,-0.7511,-0.7565,-0.7544,-0.7548,-0.7549,-0.7563,-0.757,-0.7577,-0.749,-0.749,-0.7489,0,0,-0.7575,-0.7569,-0.7586,-0.7583,-0.7578,-0.7567,-0.7572,-0.7561,-0.7557,-0.7572,-0.755,-0.7558,-0.7567,-0.7565,-0.7565,-0.7612,-0.7595,-0.7614,-0.7646,-0.7661,-0.7667,-0.7673,-0.7691,-0.7698,-0.7618,-0.7618,-0.7618,0,-0.7603,-0.7615,-0.7596,-0.7609,-0.761,-0.7584,-0.7601,-0.7599,-0.7596,-0.7598,-0.7583,-0.7596,-0.7591,-0.7613,-0.7625,-0.7625,-0.763,-0.7615,-0.7668,-0.7673,-0.7678,-0.7695,-0.7702,-0.762,-0.762,-0.762,-0.7619,0,-0.7651,-0.766,-0.7674,-0.7672,-0.7675,-0.769,-0.7674,-0.768,-0.7667,-0.7658,-0.7675,-0.7668,-0.7672,-0.7676,-0.7663,-0.7697,-0.7689,-0.7671,-0.7646,-0.7688,-0.7704,-0.771,-0.7624,-0.7623,-0.7622,-0.7621,0,0,-0.7719,-0.7707,-0.7713,-0.7713,-0.7706,-0.7713,-0.7727,-0.7731,-0.7737,-0.7735,-0.7748,-0.7757,-0.7742,-0.7742,-0.773,-0.7743,-0.7783,-0.7724,-0.7723,-0.7736,-0.7822,-0.7836,-0.7844,-0.7772,-0.7773,-0.7774,-0.7823,0,-0.7762,-0.7786,-0.7771,-0.7797,-0.7806,-0.7782,-0.7795,-0.7793,-0.7786,-0.7793,-0.7785,-0.7793,-0.7771,-0.7771,-0.7783,-0.7775,-0.78,-0.7772,-0.7784,-0.7785,-0.7787,-0.7852,-0.7866,-0.7912,-0.7829,-0.783,-0.783,0,-0.7816,-0.7819,-0.7847,-0.784,-0.7843,-0.7855,-0.7858,-0.7865,-0.7863,-0.7857,-0.7859,-0.7843,-0.7858,-0.7832,-0.7853,-0.7835,-0.7839,-0.7836,-0.7837,-0.7838,-0.781,-0.7856,-0.7927,-0.7934,-0.784,-0.7839,-0.7838,0,-0.7865,-0.7875,-0.7893,-0.7894,-0.7886,-0.7895,-0.7892,-0.7889,-0.7893,-0.7896,-0.7898,-0.7903,-0.7906,-0.791,-0.7896,-0.7879,-0.792,-0.7893,-0.7916,-0.7917,-0.7926,-0.7926,-0.8,-0.7928,-0.7927,-0.7927,-0.7927,0,-0.7916,-0.7935,-0.7915,-0.7927,-0.7947,-0.793,-0.795,-0.7945,-0.7943,-0.7954,-0.7933,-0.7944,-0.7925,-0.7934,-0.7924,-0.7944,-0.7945,-0.7941,-0.7938,-0.7943,-0.7944,-0.7946,-0.7943,-0.7929,-0.7929,-0.7928,-0.7928,0,-0.7974,-0.7961,-0.798,-0.7972,-0.7971,-0.7986,-0.7979,-0.799,-0.7982,-0.7996,-0.7999,-0.7986,-0.7996,-0.7983,-0.7991,-0.7985,-0.8013,-0.8004,-0.8014,-0.8012,-0.8036,-0.8035,-0.8115,-0.8126,-0.8045,-0.8046,-0.8047,0,-0.8008,-0.8022,-0.8015,-0.8021,-0.802,-0.803,-0.8034,-0.8018,-0.8023,-0.8023,-0.8034,-0.8042,-0.8048,-0.8065,-0.8057,-0.8064,-0.8057,-0.8085,-0.8058,-0.8063,-0.8059,-0.8059,-0.8061,-0.809,-0.8091,-0.8092,-0.8093,0,-0.807,-0.8064,-0.8071,-0.8076,-0.8082,-0.8085,-0.8087,-0.8093,-0.8076,-0.8084,-0.8094,-0.8099,-0.8108,-0.8117,-0.8122,-0.812,-0.8105,-0.8101,-0.8107,-0.8113,-0.8119,-0.8118,-0.803,-0.81,-0.8099,-0.8098,-0.8098,-0.8098,-0.8118,-0.813,-0.8128,-0.8137,-0.8137,-0.8139,-0.815,-0.8144,-0.8152,-0.8158,-0.8148,-0.8162,-0.8161,-0.8166,-0.8166,-0.8177,-0.8165,-0.8174,-0.8176,-0.8179,-0.8183,-0.8117,-0.8178,-0.8178,-0.8177,-0.8177,-0.8177,0,-0.8181,-0.8179,-0.8187,-0.8191,-0.8198,-0.8183,-0.8185,-0.8192,-0.8204,-0.8205,-0.8211,-0.8224,-0.8233,-0.8227,-0.8235,-0.8245,-0.8238,-0.8248,-0.8247,-0.8248,-0.8192,-0.8187,-0.8253,-0.8253,-0.8253,-0.8253,-0.8253,-0.8253,-0.8215,-0.8235,-0.8228,-0.8249,-0.8246,-0.8259,-0.8262,-0.8265,-0.8266,-0.8281,-0.8289,-0.8284,-0.8283,-0.8291,-0.8299,-0.8297,-0.8301,-0.8314,-0.831,-0.8258,-0.8251,-0.8244,-0.8239,-0.8315,-0.8315,-0.8364,-0.8364,-0.8365]},{"header":{"parameterUnit":"m.s-1","parameterCategory":1,"la1":30.2991,"la2":30.254,"lo1":-89.0895,"lo2":-89.0444,"dy":0.0017,"dx":0.0017,"nx":28,"ny":28,"refTime":"2023-07-18T09:00:00:Z","depth":0,"parameterNumber":3,"parameterNumberName":"V-component_of_WINDS"},"data":[0,0,0,0,0,0,0,0,0,0,0,0,0,0,0,0,0,0,0,0,0,0,0,0,0,0,0,0,0,0,0,0,0,0,0,0,0,0,0,0,0,0,0,0,0,0,0,0,0,0,0,0,0,0,0,0,0,0,4.6431,4.6431,0,4.6396,4.6396,4.6396,4.6396,4.6396,4.6397,4.6397,4.6355,4.6354,4.6352,0,0,0,0,0,0,0,0,0,0,0,0,0,4.6491,4.649,4.6431,4.6431,4.643,4.6397,4.6396,4.6396,4.6396,4.6396,4.6397,4.6397,4.6356,4.6354,4.6352,0,0,0,0,0,0,0,0,0,0,0,0,0,4.6462,4.649,4.6431,4.6426,4.6426,4.6397,4.6396,4.6395,4.6395,4.6396,4.6397,4.6398,4.6356,4.6354,4.6352,4.6323,0,0,4.6345,4.6344,0,0,0,0,0,0,0,0,4.6463,4.6459,4.6427,4.6427,4.6426,4.6401,4.6402,4.6371,4.6395,4.6407,4.6397,4.6398,4.637,4.6366,4.6358,4.6321,4.632,4.6345,4.6343,4.6342,4.6341,0,0,0,0,0,0,0,4.6465,4.6461,4.6417,4.6427,4.6426,4.6424,4.6421,4.6396,4.6384,4.6406,4.6406,4.6402,4.6369,4.636,4.6357,4.6319,4.6345,4.6343,4.6341,4.634,4.6257,4.6256,0,0,0,0,0,0,4.6469,4.6463,4.6418,4.6416,4.6447,4.6422,4.6419,4.6408,4.6385,4.6382,4.6401,4.6402,4.6364,4.636,4.6355,4.6321,4.6342,4.634,4.6339,4.6258,4.6257,4.6256,0,0,0,0,0,0,4.6471,4.6465,4.642,4.6439,4.6433,4.6421,4.6409,4.6407,4.6398,4.6382,4.6379,4.6395,4.6364,4.6359,4.6332,4.6319,4.6339,4.6337,4.6259,4.6258,4.6256,4.6251,0,0,0,0,0,0,4.6472,4.6466,4.6456,4.6439,4.6432,4.6398,4.6408,4.6406,4.6395,4.6396,4.6375,4.6372,4.6364,4.6335,4.633,4.6316,4.6335,4.626,4.6258,4.6257,4.6252,4.6249,4.6247,0,0,0,0,0,4.6474,4.6454,4.6456,4.645,4.642,4.6397,4.6393,4.6387,4.6394,4.6383,4.6373,4.6372,4.6322,4.6333,4.6326,4.6312,4.6261,4.6259,4.6257,4.6253,4.625,4.6247,0,0,0,0,0,0,4.6468,4.6452,4.6453,4.6428,4.6414,4.6398,4.6384,4.6384,4.6367,4.6368,4.6359,4.6354,4.6327,4.6317,4.6329,4.6283,4.6292,4.6288,4.6291,4.6288,4.6285,4.6288,4.6333,0,0,0,0,0,4.6464,4.6448,4.6435,4.6413,4.6407,4.6397,4.6386,4.6383,4.6368,4.6361,4.6349,4.6332,4.6313,4.63,4.6281,4.6251,4.6245,4.6238,4.6235,4.6233,4.623,4.6213,4.6209,4.625,4.625,4.625,0,0,4.6454,4.6444,4.6434,4.6412,4.6401,4.6383,4.6392,4.6373,4.6359,4.6358,4.6332,4.6322,4.6303,4.6275,4.6261,4.6265,4.6218,4.6231,4.623,4.6228,4.6211,4.6207,4.6204,4.6249,4.6249,4.6249,0,0,4.6428,4.642,4.6401,4.639,4.6375,4.6368,4.6364,4.6348,4.6342,4.6316,4.6315,4.6298,4.6264,4.6251,4.624,4.621,4.6208,4.6203,4.6191,4.6174,4.6171,4.6168,4.6157,4.6153,4.6201,4.6201,4.6201,0,4.6418,4.6394,4.639,4.6372,4.6362,4.6362,4.6342,4.6332,4.631,4.6301,4.6307,4.6265,4.6252,4.6221,4.6214,4.6205,4.6198,4.6205,4.6172,4.6169,4.6166,4.6155,4.6151,4.62,4.62,4.62,4.62,0,4.6382,4.6365,4.6351,4.6333,4.6321,4.6301,4.6294,4.6281,4.6279,4.6272,4.6245,4.6231,4.6209,4.6201,4.6198,4.6168,4.6171,4.6174,4.6183,4.6162,4.6152,4.6147,4.6199,4.62,4.62,4.62,0,0,4.6349,4.6331,4.6325,4.6317,4.63,4.6286,4.6267,4.6247,4.6237,4.6222,4.6204,4.6176,4.618,4.6167,4.6162,4.6148,4.6124,4.6152,4.6152,4.6147,4.609,4.6088,4.6083,4.6124,4.6123,4.6122,4.6092,0,4.6321,4.6289,4.6286,4.6256,4.6239,4.624,4.6223,4.621,4.6202,4.6186,4.6177,4.6157,4.6163,4.6155,4.6141,4.613,4.6113,4.6132,4.6105,4.6105,4.611,4.6078,4.6075,4.6046,4.6088,4.6087,4.6087,0,4.6284,4.627,4.624,4.6226,4.6219,4.6203,4.6186,4.6171,4.6155,4.6151,4.6137,4.6135,4.6113,4.6123,4.6092,4.6105,4.6094,4.6087,4.6086,4.6082,4.6094,4.6072,4.6037,4.6033,4.608,4.6081,4.6081,0,4.6263,4.6237,4.6215,4.6208,4.6191,4.618,4.6172,4.6158,4.6147,4.6131,4.6123,4.6104,4.6093,4.6077,4.6068,4.6077,4.6037,4.6047,4.6032,4.6032,4.6022,4.6023,4.5984,4.6016,4.6017,4.6017,4.6017,0,4.6232,4.6212,4.6206,4.6192,4.617,4.6166,4.6144,4.6136,4.6124,4.6107,4.6106,4.609,4.6081,4.6063,4.6056,4.6031,4.6026,4.602,4.6018,4.602,4.602,4.6012,4.6013,4.6015,4.6016,4.6016,4.6016,0,4.6204,4.6199,4.6175,4.6162,4.6158,4.6143,4.613,4.6116,4.611,4.6089,4.6084,4.6072,4.6052,4.6042,4.6016,4.6011,4.5982,4.5982,4.5988,4.5987,4.5972,4.5973,4.5925,4.5919,4.5956,4.5956,4.5956,0,4.6184,4.617,4.6156,4.6146,4.6138,4.6122,4.6111,4.6106,4.6095,4.6077,4.6065,4.6044,4.6028,4.5994,4.5982,4.5962,4.5961,4.5946,4.5958,4.596,4.596,4.5961,4.5959,4.5943,4.5943,4.5942,4.5942,0,4.6149,4.6147,4.6133,4.6118,4.6106,4.6093,4.608,4.6071,4.6064,4.6051,4.6031,4.6018,4.5993,4.5972,4.5951,4.5941,4.5939,4.5939,4.5934,4.5935,4.5939,4.5936,4.5981,4.5939,4.594,4.594,4.594,4.594,4.6124,4.6111,4.61,4.6084,4.6074,4.6063,4.6049,4.6042,4.6026,4.6006,4.6003,4.5982,4.5966,4.5939,4.5928,4.591,4.5913,4.5906,4.5904,4.5902,4.5901,4.5943,4.5906,4.5906,4.5906,4.5906,4.5906,0,4.6088,4.6082,4.6067,4.605,4.6037,4.604,4.6026,4.6015,4.5997,4.5983,4.5968,4.5945,4.5925,4.5912,4.5892,4.5879,4.5878,4.5874,4.5874,4.5872,4.59,4.5906,4.5875,4.5875,4.5875,4.5875,4.5875,4.5875,4.6068,4.6047,4.6044,4.6018,4.601,4.5991,4.5983,4.5972,4.5961,4.5936,4.5921,4.5914,4.59,4.5879,4.586,4.5857,4.5849,4.5844,4.5841,4.5867,4.587,4.5873,4.5879,4.5843,4.5843,4.5814,4.5814,4.5814]}]]